DIRECTV 15

Last updated on Sat Nov 15 2025 00:02:50 GMT+0000 (Coordinated Universal Time)

1 40663U 15026A 25317.50529203 -.00000103 00000+0 00000+0 0 9990 2 40663 0.0506 90.6506 0000055 103.5070 297.7539 1.00268642 38309
UTC large
Height (km)
Speed (km/s)
/
Latitude / Longitude
Inclination (degrees)
Orbital Period (minutes)
Azimuth
Elevation
Range (km)
Doppler Factor

Next 0 passes for location: London (51.5072 / 0.1276)

Sorry there are no passes over London.